Location: Burgerwiesen
(48.6500°N, 15.6167°E)
Time: 04:34:54
(UTC+00:00)

Cosmos 864 Rocket - Pass Details

Date: 09 April 2020
Orbit: 953 x 992 km, 82.9° (Epoch: 01 June)

Event Time Altitude Azimuth Distance (km) Brightness Sun altitude
Rises 19:23:01 0° 352° (N) 3,680 8.2 -16.3°
Reaches altitude 10° 19:25:34 10° 355° (N) 2,722 7.4 -16.6°
Maximum altitude 19:31:46 67° 78° (ENE) 1,043 4.5 -17.5°
Enters shadow 19:35:33 24° 155° (SSE) 1,854 5.5 -18.0°
